Showing default

OMNI-L1, 52157

Orbit data source: Space-Track

OMNI-L1, 52157 is a payload satellite owned by OmniSpace (US) in SSO that was launched on Fri, 01 Apr 2022 UTC via an FALCON 9 launch vehicle from the Air Force Eastern Test Range (AFETR). Payload-class satellites include a variety of spacecraft equipped with specific instruments for various scientific and technological missions. These include communications satellites like Starlink; space stations such as the ISS; scientific satellites like the Hubble; Earth observation satellites from companies like Planet Labs, Umbra, and HawkEye 360; GPS; miniature CubeSats for education and research; and military/defense satellites.

Loading next visibility...
Identifier
52157, 2022-033A
Orbit
SSO
Country
Flag of USUS
Related business
Manufacturer
NANAV/THALES
Mission
Operational Commercial Communications
Bus & Motor
CUBESAT 12U, Unknown motor
Mass
~20 kg wet, ~20 kg dry
Launch date (UTC)
2022-04-01 (4 years ago)
Launch vehicle
FALCON 9
Launch site
Air Force Eastern Test Range (AFETR)
Object type
Payload
Rocket body
Debris
Shape & HBR
Box + 2 Pan, 0.5 m
Radar Cross Section
0.126 m², Medium (>0.1 m² and < 1m²)

Expand to show TLE details & history
Last TLE update: 10 hours ago

TLE from 10 hours ago
0 OMNI-L1
1 52157U 22033A   26264.73798938  .00000987  00000-0  12774-3 0  9992
2 52157  97.8331 342.0243 0004559 344.5524  15.5550 14.83028991241767
Epoch: 2026-09-21T17:42Z
TLE epoch observation values (Epoch: 2026-09-21T17:42:42.282Z)
Latitude
-0.00001°
Longitude
75.73461°
Altitude
619.733 km
Speed
7.551 km/s
True Right ascension
22h 48m 05s
True Declination
0° 00' 00"
Sunlit
Object was in full shadow at epoch
Visualization orbit readout
Latitude
Unknown
Longitude
Unknown
Altitude
Unknown
Speed
Unknown
Apparent Right ascension
Unknown
Apparent Declination
Unknown
Sunlit
N/A
Visualization observer readout
Local Sidereal Time
21:02:55
Azimuth
Unknown
Elevation
Unknown
Doppler factor
Unknown
Orbital elements
Apogee altitude
620.002 km
Perigee altitude
613.624 km
Semi-major axis
6,994.95 km
Eccentricity
0.00046
Inclination
97.8331°
RAAN
342.0243°
Arg. of periapsis
344.5524°
True anomaly
15.56902°
Mean anomaly
15.555°
Eccentric anomaly
15.56201°
Mean motion
3.70993 °/min
Orbital period
97.04 mins
BSTAR
0.00012774
Loading maneuver chart data...
Computing Atmospheric mass density...

Documentation

Showing up to 5 results
|